Tracking 19245 objects as of 21-Aug-2018
HD Live streaming from Space Station
objects crossing your sky now

ARIANE 5 DEB (SYLDA)

Track ARIANE 5 DEB (SYLDA) now!


NORAD ID: 43177
Int'l Code: 2018-012D
Perigee: 324.7 km
Apogee: 42,503.1 km
Inclination: 20.8 °
Period: 768.2 minutes
Semi major axis: 27784 km
RCS: Unknown
Launch date: January 25, 2018
Source: France (FR)
Launch site: FRENCH GUIANA (FRGUI)

Note: This is SATELLITE DEBRIS
aabbcc
Your satellite tracking list
Your tracking list is empty




NASA's NSSDC Master Catalog

Two Line Element Set (TLE):
1 43177U 18012D   18232.32406809 +.00002105 +00000-0 +30355-2 0  9998
2 43177 020.8388 168.9374 7590177 345.8984 001.1341 01.87452050003867
Source of the keplerian elements: AFSPC